sat.trackr.live / text

‹ back to catalog

STARLINK-37030

NORAD 68220 · 2026-053P

PAYLOAD ACTIVE UNKNOWN

§ Identity

Operator
Country
US
Launch date
2026-03-17
Launch site
AFWTR
Launch vehicle
Mass (kg)
RCS (m²)

Purposes: comms

External: N2YO · Heavens-Above · Gunter

§ Orbital elements

Epoch: 2026-05-25T02:59:12.710688Z

Period
93.91 min
Inclination
97.2868°
Eccentricity
0.0001283
Mean motion
15.33454332 rev/d
Perigee alt
464.6 km
Apogee alt
466.4 km
Semi-major
6,843.7 km
B*
7.1485e-4
RAAN
20.5990°
Arg perigee
99.1160°
Mean anomaly
261.0228°
Rev number
1,193

§ Raw data

STARLINK-370301 68220U 26053P   26145.12445267  .00023080  00000+0  71485-3 0  99932 68220  97.2868  20.5990 0001283  99.1160 261.0228 15.33454332 11933

JSON: /api/v1/satellites/68220 · /tle

For live sub-satellite position, see the globe view (requires WebGL).

§ Visibility from observer

Set your observer location to see the next 7 days of passes ≥ 10°. The values pass through the URL so the page stays shareable.

No JS? Fill the form by hand. The geolocation button needs JavaScript.